• Join FlightAware (Why Join?)
  • Login
  • US Flag GB Flag 
04:14 EST


 

Airport Tracker/Info


-or-


 

Live Flight TrackerFlight Track Log ✈ JBU807 ✈ 31-May-2014 ✈ KBOS - TIST / STT

Flight Track Log - Related Links

Times and Time Zones

All times are in EDT time to prevent confusion due to time zone crossing. See the JBU807 flight status page for this flight to view local times or setup timezone preferences in your user account.

Time Position Orientation Groundspeed Altitude Reporting Facility
EDT Latitude Longitude Course Direction KTS MPH feet Rate Location/Type
09:40 42.3833 -71.0000 151° Southeast 171 197 700  Level KA90
09:41 42.4333 -70.9667 26° Northeast 186 214 2,400 1,920 Climbing KA90
09:42 42.4500 -70.9000 71° East 261 300 4,600 2,520 Climbing KA90
09:43 42.4361 -70.8608 116° Southeast 264 304 6,200 2,700 Climbing Boston Center
09:44 42.3725 -70.7997 145° Southeast 286 329 8,700 2,340 Climbing Boston Center
09:45 41.9908 -70.4805 151° Southeast  Level FlightAware Approximate
09:45 42.2994 -70.7419 150° Southeast 301 346 11,000  Level Boston Center
09:46 42.2147 -70.6794 151° Southeast 342 394 12,500 1,680 Climbing Boston Center
09:47 42.1317 -70.5950 143° Southeast 372 428 14,500 1,920 Climbing Boston Center
09:48 42.0447 -70.5111 144° Southeast 385 443 16,500 1,680 Climbing Boston Center
09:49 41.9567 -70.4233 143° Southeast 394 453 18,000 1,800 Climbing Boston Center
09:50 41.8478 -70.3164 144° Southeast 406 467 20,200 1,740 Climbing Boston Center
09:51 41.7533 -70.2253 144° Southeast 411 473 21,600 1,260 Climbing Boston Center
09:52 41.6572 -70.1303 144° Southeast 423 487 22,800 1,260 Climbing Boston Center
09:53 41.5578 -70.0356 145° Southeast 432 497 24,200 1,200 Climbing Boston Center
09:54 41.3969 -69.8847 145° Southeast 432 497 26,000 1,080 Climbing New York Center
09:55 41.2961 -69.7894 145° Southeast 437 503 27,100 1,380 Climbing New York Center
09:56 41.1956 -69.6944 145° Southeast 443 510 28,900 1,680 Climbing New York Center
09:57 41.1008 -69.6022 144° Southeast 438 504 30,500 1,140 Climbing New York Center
09:58 41.0042 -69.5131 145° Southeast 431 496 31,200 900 Climbing New York Center
09:59 40.9569 -69.4614 140° Southeast 421 484 31,900 900 Climbing Boston Center
10:00 40.8606 -69.3719 145° Southeast 422 486 32,600 540 Climbing Boston Center
10:01 40.7631 -69.2783 144° Southeast 432 497 33,000 420 Climbing Boston Center
10:02 40.6633 -69.1853 145° Southeast 438 504 33,500 480 Climbing Boston Center
10:03 40.5622 -69.0914 145° Southeast 440 506 34,100 480 Climbing Boston Center
10:04 40.4592 -68.9950 145° Southeast 450 518 34,500 420 Climbing Boston Center
10:05 40.3558 -68.8989 145° Southeast 453 521 35,000 240 Climbing Boston Center
10:06 40.2508 -68.8028 145° Southeast 458 527 35,100  Climbing Boston Center
10:07 40.1200 -68.6828 145° Southeast 472 543 35,100 -60 Level Boston Center
10:08 40.0119 -68.5842 145° Southeast 476 548 35,000  Descending Boston Center
10:09 39.8703 -68.4669 148° Southeast 477 549 35,100  Climbing New York Center
10:10 39.7642 -68.3678 144° Southeast 472 543 35,100 -60 Level New York Center
10:12 39.5456 -68.1756 164° South 472 543 35,000  Descending New York Center
10:13 39.4392 -68.0747 144° Southeast 472 543 35,100  Climbing New York Center
10:14 39.3306 -67.9819 147° Southeast 472 543 35,000 -60 Descending New York Center
10:15 39.2200 -67.8897 147° Southeast 472 543 35,000  Level New York Center
10:16 39.1153 -67.7867 143° Southeast 472 543 35,100  Climbing New York Center
10:17 39.0067 -67.6922 146° Southeast 472 543 35,100  Level New York Center
10:18 38.8958 -67.6008 147° Southeast 472 543 35,100 -60 Level New York Center
10:20 38.8833 -67.5667 170° South 457 526 35,000  Descending New York Oceanic (ODAPS)
10:48 35.1342 -66.7561 169° South 458 527 35,100  Climbing New York Center
10:49 35.1179 -66.7202 170° South 457 526 35,000  Descending FlightAware Transoceanic
10:49 35.0056 -66.7119 164° South 468 539 35,100  Climbing New York Center
10:50 34.9923 -66.6934 170° South 457 526 35,000  Descending FlightAware Transoceanic
10:50 34.8892 -66.6644 161° South 487 560 35,100  Climbing New York Center
10:51 34.8667 -66.6667 169° South 457 526 35,000 -120 Descending FlightAware Transoceanic
10:51 34.7442 -66.6314 169° South 487 560 35,000  Level New York Center
10:52 34.7401 -66.6358 169° South 457 526 35,000  Level FlightAware Transoceanic
10:52 34.6117 -66.6053 171° South 487 560 35,000 60 Level New York Center
10:53 34.4772 -66.5744 169° South 487 560 35,100  Climbing New York Center
10:54 34.3528 -66.5356 166° South 475 547 35,100  Level New York Center
10:55 34.2289 -66.5092 170° South 490 564 35,100  Level New York Center
10:56 34.0839 -66.4792 170° South 479 551 35,100 -60 Level New York Center
10:57 33.9594 -66.4406 166° South 483 556 35,000  Descending New York Center
10:58 33.8356 -66.4172 171° South 488 562 35,100  Climbing New York Center
10:59 33.6903 -66.3847 169° South 482 555 35,100  Level New York Center
11:00 33.5619 -66.3517 168° South 477 549 35,100  Level New York Center
11:01 33.4294 -66.3214 169° South 482 555 35,100  Level New York Center
11:02 33.2992 -66.2936 170° South 474 545 35,100  Level New York Center
11:03 33.1856 -66.2647 168° South 474 545 35,100 -60 Level New York Center
11:04 33.0444 -66.2303 168° South 467 537 35,000 -60 Descending New York Center
11:05 32.9183 -66.2025 170° South 477 549 35,000  Level New York Center
11:06 32.7986 -66.1767 170° South 482 555 35,100  Climbing New York Center
11:07 32.6578 -66.1475 170° South 468 539 35,100 -60 Level New York Center
11:08 32.5419 -66.1167 167° South 472 543 35,000  Descending New York Center
11:09 32.3992 -66.0853 169° South 472 543 35,100  Climbing New York Center
11:10 32.2708 -66.0556 169° South 472 543 35,100  Level New York Center
11:11 32.1550 -66.0300 169° South 477 549 35,100  Level New York Center
11:12 32.0142 -65.9961 168° South 471 542 35,100  Level New York Center
11:13 31.8797 -65.9669 170° South 477 549 35,100  Level New York Center
11:14 31.7661 -65.9414 169° South 469 540 35,100  Level New York Center
11:15 31.6233 -65.9106 170° South 469 540 35,100  Level New York Center
11:16 31.5056 -65.8831 169° South 467 537 35,100  Level New York Center
11:17 31.3625 -65.8497 169° South 472 543 35,100  Level New York Center
11:18 31.2367 -65.8253 171° South 462 532 35,100  Level New York Center
11:19 31.1231 -65.7953 167° South 468 539 35,100 -60 Level New York Center
11:20 30.9822 -65.7622 169° South 468 539 35,000 -60 Descending New York Center
11:21 30.8539 -65.7356 170° South 470 541 35,000  Level New York Center
11:22 30.7428 -65.7106 169° South 470 541 35,000  Level New York Center
11:23 30.6019 -65.6800 169° South 465 535 35,100  Climbing New York Center
11:24 30.4819 -65.6508 168° South 477 549 35,100  Level New York Center
11:25 30.3392 -65.6183 169° South 477 549 35,100  Level New York Center
11:26 30.2069 -65.5875 169° South 477 549 35,100  Level New York Center
11:27 30.0894 -65.5656 171° South 478 550 35,100  Level New York Center
11:28 29.9467 -65.5331 169° South 483 556 35,100  Level New York Center
11:29 29.8122 -65.5028 169° South 490 564 35,100  Level New York Center
11:30 29.6922 -65.4739 168° South 507 583 35,100  Level New York Center
11:31 29.5453 -65.4419 169° South 489 563 35,100  Level New York Center
11:32 29.4278 -65.4156 169° South 489 563 35,100  Level New York Center
11:33 29.2875 -65.4381 188° South 465 535 35,100  Level New York Center
11:34 29.1600 -65.4667 191° South 462 532 35,100  Level New York Center
11:35 29.0442 -65.4806 186° South 475 547 35,100  Level New York Center
12:08 24.9333 -65.7833 171° South 473 544 37,000  Climbing New York Oceanic (ODAPS)
12:19 23.5000 -65.5333 165° South 433 498 37,000  Level New York Oceanic (ODAPS)
12:27 22.4500 -65.2667 166° South 420 483 37,000  Level San Juan Center
12:28 22.3087 -65.1972 165° South 433 498 37,000  Level FlightAware Transoceanic
12:28 22.3333 -65.2333 165° South 380 437 37,000  Level San Juan Center
12:29 22.1895 -65.1639 166° South 433 498 37,000  Level FlightAware Transoceanic
12:29 22.2000 -65.2167 173° South 440 506 37,000  Level San Juan Center
12:30 22.0703 -65.1306 166° South 433 498 37,000  Level FlightAware Transoceanic
12:30 22.0833 -65.1500 152° Southeast 590 679 37,000  Level San Juan Center
12:31 21.9511 -65.0974 166° South 433 498 37,000  Level FlightAware Transoceanic
12:31 21.9667 -65.1333 172° South 540 621 37,000  Level San Juan Center
12:32 21.8319 -65.0643 166° South 433 498 37,000  Level FlightAware Transoceanic
12:32 21.8333 -65.1000 167° South 580 667 37,000  Level San Juan Center
12:33 21.7167 -65.1000 180° South 470 541 37,000  Level San Juan Center
12:34 21.6000 -65.1000 180° South 430 495 37,100  Climbing San Juan Center
12:35 21.4667 -65.1333 193° South 470 541 37,000 -60 Descending San Juan Center
12:36 21.3500 -65.1333 180° South 450 518 37,000  Level San Juan Center
12:37 21.2333 -65.1500 188° South 430 495 37,000  Level San Juan Center
12:38 21.0833 -65.1500 180° South 430 495 37,000  Level San Juan Center
12:39 20.9667 -65.1667 188° South 440 506 37,100  Climbing San Juan Center
12:40 20.8500 -65.1667 180° South 430 495 37,000 -60 Descending San Juan Center
12:41 20.7167 -65.1833 187° South 440 506 37,000  Level San Juan Center
12:42 20.6000 -65.1833 180° South 430 495 37,100  Climbing San Juan Center
12:43 20.4833 -65.2000 188° South 430 495 37,100 -1,080 Level San Juan Center
12:44 20.3667 -65.2167 188° South 430 495 35,000 -1,080 Descending San Juan Center
12:45 20.2333 -65.2167 180° South 450 518 35,000  Level San Juan Center
12:46 20.1167 -65.2333 188° South 440 506 35,000  Level San Juan Center
12:47 20.0000 -65.2500 188° South 430 495 35,000 -300 Level San Juan Center
12:48 19.8833 -65.2500 180° South 430 495 34,400 -1,920 Descending San Juan Center
12:49 19.7500 -65.2500 180° South 440 506 31,200 -3,180 Descending San Juan Center
12:50 19.6333 -65.2500 180° South 450 518 28,100 -2,700 Descending San Juan Center
12:51 19.5000 -65.2333 173° South 460 529 25,900 -2,160 Descending San Juan Center
12:52 19.3667 -65.2333 180° South 460 529 23,800 -2,040 Descending San Juan Center
12:53 19.2500 -65.2167 172° South 440 506 21,800 -2,100 Descending San Juan Center
12:54 19.1333 -65.2167 180° South 430 495 19,600 -2,400 Descending San Juan Center
12:55 19.0000 -65.2167 180° South 420 483 17,000 -2,880 Descending San Juan Center
12:56 18.8833 -65.2000 172° South 410 472 13,900 -3,000 Descending San Juan Center
12:57 18.7833 -65.2000 180° South 400 460 11,100 -2,040 Descending San Juan Center
12:58 18.6667 -65.2000 180° South 380 437 9,900 -1,140 Descending San Juan Center
12:59 18.5833 -65.1833 169° South 300 345 8,900 -2,100 Descending San Juan Center
13:00 18.5167 -65.1833 180° South 280 322 5,700 -2,880 Descending San Juan Center
13:01 18.4333 -65.1833 180° South 280 322 3,100 -1,740 Descending San Juan Center
13:02 18.3667 -65.1833 180° South 250 288 2,200 -480 Descending San Juan Center
13:03 18.3333 -65.1333 125° Southeast 200 230 2,200 -240 Level San Juan Center
13:04 18.3333 -65.0833 90° East 170 196 1,800 -600 Descending San Juan Center
13:05 18.3333 -65.0333 90° East 140 161 1,000 -720 Descending San Juan Center
13:06 18.3333 -64.9833 90° East 140 161 400 -600 Descending San Juan Center